| time (UTC) | temp C | wind direction | speed KPH | gust KPH | rain 1hr cm | rain 24hr cm | rain mn cm | humidity % | barometer mb |
| 20260507213024 | 4 | 4 | 0.0 | 0.0 | 0.00 | 0.00 | 0.00 | 68 | 1019.8 |
| 20260507211525 | 5 | 4 | 0.0 | 0.0 | 0.00 | 0.00 | 0.00 | 70 | 1019.8 |
| 20260507210023 | 5 | 4 | 0.0 | 1.6 | 0.00 | 0.00 | 0.00 | 68 | 1019.8 |
| 20260507204522 | 6 | 4 | 0.0 | 3.2 | 0.00 | 0.00 | 0.00 | 67 | 1019.6 |
| 20260507203025 | 6 | 335 | 1.6 | 3.2 | 0.00 | 0.00 | 0.00 | 62 | 1019.4 |
| 20260507201522 | 7 | 333 | 1.6 | 6.4 | 0.00 | 0.00 | 0.00 | 60 | 1019.3 |
| 20260507200018 | 7 | 327 | 0.0 | 6.4 | 0.00 | 0.00 | 0.00 | 61 | 1019.3 |
| 20260507194519 | 7 | 275 | 0.0 | 0.0 | 0.00 | 0.00 | 0.00 | 59 | 1019.2 |
| 20260507193017 | 7 | 290 | 0.0 | 1.6 | 0.00 | 0.00 | 0.00 | 59 | 1019.0 |
| 20260507191514 | 8 | 263 | 0.0 | 4.8 | 0.00 | 0.00 | 0.00 | 57 | 1018.9 |
| 20260507190013 | 8 | 251 | 0.0 | 3.2 | 0.00 | 0.00 | 0.00 | 55 | 1018.6 |
| 20260507184512 | 9 | 254 | 0.0 | 3.2 | 0.00 | 0.00 | 0.00 | 53 | 1018.4 |
| 20260507183013 | 10 | 224 | 0.0 | 4.8 | 0.00 | 0.00 | 0.00 | 50 | 1018.4 |
| 20260507181510 | 10 | 292 | 1.6 | 6.4 | 0.00 | 0.00 | 0.00 | 46 | 1018.3 |
| 20260507180015 | 11 | 313 | 1.6 | 9.7 | 0.00 | 0.00 | 0.00 | 45 | 1018.2 |
| 20260507174511 | 11 | 243 | 0.0 | 11.3 | 0.00 | 0.00 | 0.00 | 43 | 1018.1 |
| 20260507173020 | 12 | 56 | 1.6 | 6.4 | 0.00 | 0.00 | 0.00 | 43 | 1018.0 |
| 20260507171510 | 12 | 329 | 1.6 | 12.9 | 0.00 | 0.00 | 0.00 | 40 | 1017.9 |
| 20260507170009 | 12 | 281 | 0.0 | 8.0 | 0.00 | 0.00 | 0.00 | 41 | 1017.8 |
| 20260507164508 | 13 | 314 | 3.2 | 11.3 | 0.00 | 0.00 | 0.00 | 39 | 1017.7 |
| 20260507163010 | 13 | 268 | 1.6 | 12.9 | 0.00 | 0.00 | 0.00 | 39 | 1017.6 |
| 20260507161507 | 13 | 301 | 1.6 | 11.3 | 0.00 | 0.00 | 0.00 | 41 | 1017.7 |
| 20260507160007 | 13 | 270 | 1.6 | 11.3 | 0.00 | 0.00 | 0.00 | 41 | 1017.6 |
| 20260507154507 | 13 | 330 | 3.2 | 12.9 | 0.00 | 0.00 | 0.00 | 39 | 1017.6 |
| 20260507153006 | 13 | 66 | 1.6 | 14.5 | 0.00 | 0.00 | 0.00 | 37 | 1017.6 |
| 20260507151505 | 13 | 268 | 3.2 | 9.7 | 0.00 | 0.00 | 0.00 | 38 | 1017.6 |
| 20260507150010 | 13 | 278 | 4.8 | 16.1 | 0.00 | 0.00 | 0.00 | 35 | 1017.5 |
| 20260507144631 | 13 | 279 | 4.8 | 14.5 | 0.00 | 0.00 | 0.00 | 37 | 1017.5 |
| 20260507143002 | 14 | 264 | 4.8 | 14.5 | 0.00 | 0.00 | 0.00 | 35 | 1017.5 |
| 20260507141604 | 15 | 348 | 3.2 | 12.9 | 0.00 | 0.00 | 0.00 | 38 | 1017.5 |
| 20260507134605 | 13 | 273 | 4.8 | 17.7 | 0.00 | 0.00 | 0.00 | 40 | 1017.4 |
| 20260507133132 | 14 | 316 | 4.8 | 14.5 | 0.00 | 0.00 | 0.00 | 45 | 1017.5 |
| 20260507131556 | 13 | 253 | 4.8 | 16.1 | 0.00 | 0.00 | 0.00 | 45 | 1017.4 |
| 20260507130107 | 14 | 321 | 4.8 | 16.1 | 0.00 | 0.00 | 0.00 | 48 | 1017.3 |
| 20260507124555 | 14 | 227 | 4.8 | 12.9 | 0.00 | 0.00 | 0.00 | 47 | 1017.3 |
| 20260507123053 | 13 | 332 | 3.2 | 16.1 | 0.00 | 0.00 | 0.00 | 48 | 1017.1 |
| 20260507121605 | 13 | 246 | 4.8 | 14.5 | 0.00 | 0.00 | 0.00 | 48 | 1017.0 |
| 20260507120058 | 14 | 123 | 3.2 | 17.7 | 0.00 | 0.00 | 0.00 | 49 | 1017.0 |
| 20260507114633 | 14 | 282 | 3.2 | 12.9 | 0.00 | 0.00 | 0.00 | 48 | 1017.0 |
| 20260507113049 | 13 | 332 | 3.2 | 9.7 | 0.00 | 0.00 | 0.00 | 47 | 1016.9 |
| 20260507111548 | 13 | 9 | 1.6 | 12.9 | 0.00 | 0.00 | 0.00 | 51 | 1017.1 |
| 20260507110045 | 12 | 280 | 3.2 | 12.9 | 0.00 | 0.00 | 0.00 | 53 | 1017.0 |
| 20260507104544 | 12 | 292 | 3.2 | 11.3 | 0.00 | 0.00 | 0.00 | 52 | 1017.0 |
| 20260507103040 | 12 | 347 | 4.8 | 12.9 | 0.00 | 0.00 | 0.00 | 53 | 1016.9 |
| 20260507101543 | 13 | 256 | 3.2 | 12.9 | 0.00 | 0.00 | 0.00 | 53 | 1016.7 |
| 20260507100036 | 13 | 319 | 3.2 | 16.1 | 0.00 | 0.00 | 0.00 | 55 | 1016.6 |
| 20260507094534 | 13 | 239 | 1.6 | 12.9 | 0.00 | 0.00 | 0.00 | 58 | 1016.4 |
| 20260507093032 | 13 | 316 | 1.6 | 12.9 | 0.00 | 0.00 | 0.00 | 57 | 1016.2 |
| 20260507091538 | 12 | 267 | 3.2 | 14.5 | 0.00 | 0.00 | 0.00 | 52 | 1016.2 |
| 20260507090035 | 12 | 322 | 8.0 | 17.7 | 0.00 | 0.00 | 0.00 | 55 | 1016.2 |
| 20260507084527 | 12 | 236 | 4.8 | 12.9 | 0.00 | 0.00 | 0.00 | 58 | 1016.3 |
| 20260507083024 | 12 | 222 | 3.2 | 14.5 | 0.00 | 0.00 | 0.00 | 59 | 1016.2 |
| 20260507081518 | 11 | 240 | 8.0 | 17.7 | 0.00 | 0.00 | 0.00 | 61 | 1016.1 |
| 20260507080014 | 11 | 295 | 4.8 | 14.5 | 0.00 | 0.00 | 0.00 | 62 | 1016.0 |
| 20260507074511 | 10 | 258 | 11.3 | 19.3 | 0.00 | 0.00 | 0.00 | 63 | 1015.7 |
| 20260507073006 | 10 | 217 | 3.2 | 12.9 | 0.00 | 0.00 | 0.00 | 63 | 1015.7 |
| 20260507071502 | 10 | 239 | 8.0 | 14.5 | 0.00 | 0.00 | 0.00 | 63 | 1015.6 |
| 20260507070059 | 9 | 287 | 1.6 | 12.9 | 0.00 | 0.00 | 0.00 | 65 | 1015.5 |
| 20260507064559 | 8 | 338 | 0.0 | 11.3 | 0.00 | 0.00 | 0.00 | 67 | 1015.4 |
| 20260507063059 | 8 | 247 | 1.6 | 11.3 | 0.00 | 0.00 | 0.00 | 68 | 1015.3 |
| 20260507061552 | 8 | 263 | 3.2 | 12.9 | 0.00 | 0.00 | 0.00 | 68 | 1015.3 |
| 20260507060054 | 7 | 254 | 1.6 | 11.3 | 0.00 | 0.00 | 0.00 | 70 | 1015.2 |
| 20260507054546 | 7 | 233 | 6.4 | 9.7 | 0.00 | 0.00 | 0.00 | 74 | 1015.0 |
| 20260507053042 | 6 | 197 | 0.0 | 3.2 | 0.00 | 0.00 | 0.00 | 75 | 1015.0 |
| 20260507051541 | 5 | 177 | 1.6 | 4.8 | 0.00 | 0.00 | 0.00 | 79 | 1014.8 |
| 20260507050040 | 3 | 258 | 0.0 | 0.0 | 0.00 | 0.00 | 0.00 | 84 | 1014.7 |
| 20260507044539 | 2 | 258 | 0.0 | 0.0 | 0.00 | 0.00 | 0.00 | 89 | 1014.6 |
| 20260507043038 | 1 | 258 | 0.0 | 0.0 | 0.00 | 0.00 | 0.00 | 89 | 1014.4 |
| 20260507041535 | 1 | 258 | 0.0 | 0.0 | 0.00 | 0.00 | 0.00 | 89 | 1014.5 |
| 20260507040036 | 0 | 258 | 0.0 | 0.0 | 0.00 | 0.00 | 0.00 | 89 | 1014.5 |
| 20260507034535 | 0 | 258 | 0.0 | 0.0 | 0.00 | 0.00 | 0.00 | 88 | 1014.3 |
| 20260507033032 | 0 | 258 | 0.0 | 0.0 | 0.00 | 0.00 | 0.00 | 87 | 1014.2 |
| 20260507031529 | 0 | 258 | 0.0 | 0.0 | 0.00 | 0.00 | 0.00 | 86 | 1014.2 |
| 20260507030028 | 0 | 258 | 0.0 | 0.0 | 0.00 | 0.00 | 0.00 | 86 | 1014.2 |
| 20260507024527 | 0 | 258 | 0.0 | 0.0 | 0.00 | 0.00 | 0.00 | 86 | 1014.0 |
| 20260507023025 | 0 | 258 | 0.0 | 0.0 | 0.00 | 0.00 | 0.00 | 86 | 1014.0 |
| 20260507021525 | 0 | 258 | 0.0 | 0.0 | 0.00 | 0.00 | 0.00 | 86 | 1013.9 |
| 20260507020029 | 0 | 258 | 0.0 | 0.0 | 0.00 | 0.00 | 0.00 | 85 | 1013.7 |
| 20260507014528 | 0 | 258 | 0.0 | 0.0 | 0.00 | 0.00 | 0.00 | 83 | 1013.7 |
| 20260507013039 | 0 | 258 | 0.0 | 1.6 | 0.00 | 0.00 | 0.00 | 83 | 1013.7 |
| 20260507011518 | 1 | 258 | 0.0 | 0.0 | 0.00 | 0.00 | 0.00 | 81 | 1013.5 |
| 20260507010115 | 1 | 258 | 0.0 | 3.2 | 0.00 | 0.00 | 0.00 | 80 | 1013.4 |
| 20260507004512 | 1 | 261 | 0.0 | 1.6 | 0.00 | 0.00 | 0.00 | 78 | 1013.3 |
| 20260507003008 | 1 | 261 | 0.0 | 1.6 | 0.00 | 0.00 | 0.00 | 78 | 1013.2 |
| 20260507001509 | 1 | 261 | 0.0 | 1.6 | 0.00 | 0.00 | 0.00 | 77 | 1013.2 |
| 20260507000004 | 2 | 261 | 0.0 | 3.2 | 0.00 | 0.00 | 0.00 | 76 | 1013.1 |
| 20260506234501 | 2 | 274 | 0.0 | 0.0 | 0.00 | 0.00 | 0.00 | 75 | 1013.2 |
| 20260506233110 | 3 | 274 | 0.0 | 1.6 | 0.00 | 0.00 | 0.00 | 72 | 1013.2 |
| 20260506231601 | 3 | 272 | 0.0 | 3.2 | 0.00 | 0.00 | 0.00 | 69 | 1013.2 |
| 20260506230054 | 3 | 252 | 0.0 | 3.2 | 0.00 | 0.00 | 0.00 | 67 | 1013.1 |
| 20260506224551 | 5 | 283 | 0.0 | 3.2 | 0.00 | 0.00 | 0.00 | 63 | 1012.9 |
| 20260506223047 | 5 | 290 | 0.0 | 4.8 | 0.00 | 0.00 | 0.00 | 61 | 1013.0 |
| 20260506221543 | 6 | 306 | 0.0 | 4.8 | 0.00 | 0.00 | 0.00 | 60 | 1012.9 |
| 20260506220041 | 6 | 297 | 0.0 | 6.4 | 0.00 | 0.00 | 0.00 | 61 | 1012.8 |
| 20260506214542 | 6 | 340 | 0.0 | 8.0 | 0.00 | 0.00 | 0.00 | 62 | 1012.8 |